Flag for Saudi Arabia

Past Weather in Dhahran, Saudi Arabia — Yesterday and Last 2 Weeks

Now
106 °F

Sunny.


Feels Like: 102 °F
Forecast: 108 / 80 °F
Wind: 7 mph from East

Location: Dhahran
Current Time: Sep 24, 2020 at 3:41:41 pm
Latest Report: Sep 24, 2020 at 3:00 pm
Visibility: 10 mi
Pressure29.59 "Hg
Humidity: 13%
Dew Point: 46 °F
Location of DhahranLocation

Past Weather in Dhahran — Graph

°F

Dhahran Temperature Yesterday

Maximum temperature yesterday: 106 °F (at 11:00 am)
Minimum temperature yesterday: 79 °F (at 4:00 am)
Average temperature yesterday: 92 °F

High & Low Weather Summary for the Past Weeks

 TemperatureHumidityPressure
High111 °F (Sep 9, 2:00 pm)100% (Sep 10, 3:00 am)29.71 "Hg (Sep 10, 3:00 am)
Low77 °F (Sep 10, 3:00 am)7% (Sep 13, 12:00 pm)29.50 "Hg (Sep 11, 3:00 pm)
Average93 °F47%29.60 "Hg
* Reported Sep 9 2:00 pm — Sep 24 2:00 pm, Dhahran. Weather by CustomWeather, © 2020

Note: Actual official high and low records may vary slightly from our data, if they occured in-between our weather recording intervals... More about our weather records

Dhahran Weather History for the Previous 24 Hours

Scroll right to see more
 ConditionsComfort  
Time TempWeatherWind HumidityBarometerVisibility
2:00 pm
Thu, Sep 24
106 °FSunny.6 mph17%29.59 "Hg10 mi
1:00 pm106 °FSunny.5 mph20%29.59 "Hg10 mi
12:00 pm108 °FSunny.7 mph22%29.62 "Hg10 mi
11:00 am100 °FClear.6 mph40%29.65 "Hg5 mi
10:00 am99 °FClear.9 mph42%29.65 "Hg5 mi
9:00 am99 °FClear.9 mph47%29.65 "Hg5 mi
8:00 am90 °FClear.7 mph67%29.68 "Hg4 mi
7:00 am82 °FClear.5 mph94%29.65 "Hg4 mi
6:00 am82 °FFog.3 mph94%29.65 "Hg2 mi
5:00 am79 °FFog.5 mph94%29.62 "Hg3 mi
4:00 am81 °FClear.3 mph89%29.59 "Hg10 mi
3:00 am82 °FClear.No wind89%29.59 "Hg10 mi
2:00 am82 °FClear.6 mph89%29.59 "Hg10 mi
1:00 am84 °FClear.5 mph84%29.59 "Hg10 mi
12:00 am84 °FClear.No wind84%29.59 "Hg10 mi
11:00 pm
Wed, Sep 23
86 °FClear.3 mph75%29.59 "Hg10 mi
10:00 pm86 °FClear.3 mph75%29.59 "Hg10 mi
9:00 pm90 °FClear.3 mph71%29.59 "Hg10 mi
8:00 pm91 °FClear.7 mph67%29.59 "Hg10 mi
7:00 pm93 °FClear.8 mph53%29.56 "Hg10 mi
6:00 pm97 °FClear.7 mph30%29.56 "Hg10 mi
5:00 pm99 °FSunny.12 mph24%29.56 "Hg10 mi
4:00 pm100 °FSunny.10 mph25%29.53 "Hg10 mi
3:00 pm104 °FSunny.9 mph23%29.53 "Hg10 mi
Weather by CustomWeather, © 2020

See weather overview